(°C)
-8°
-9°
-10°
-11°
-12°
-13°
-14°
(°C)
-14°
-15°
-16°
-17°
-18°
-19°
-19°
NNO
NNO
NNO
NNO
NNO
NNO
NNO
(km/u)
12-20
12-21
12-21
12-21
12-21
11-26
11-23
(mm)
0
0
0
0
0
0
0
(%)
1
1
1
0
0
0
0

Zonverhoging

/ -30.9°
sun-icon
UV 0
09:38
14:34
Afnemende maan (334°)
05:56
14:05

METAR voor 64.6°N 40.72°O (ULAA)

Tijd Voorwaarden Temperatuur/
Dauwpunt
Wind Zicht Weer Wolken Luchtdruk Wijzigen Ruw
MVFR -8°C / °C variable 2kt >10km - Overcast 1400ft 990 No Significant change. Runway 08: Dry snow, 51-100% contamination with 3mm, friction coefficient 0.40. ULAA 021630Z VRB01MPS 9999 OVC014 M08/M10 Q0990 R08/490340 NOSIG RMK QFE742/0989
MVFR -8°C / °C variable 2kt >10km - Overcast 1400ft 990 No Significant change. Runway 08: Dry snow, 51-100% contamination with 3mm, friction coefficient 0.40. ULAA 021600Z VRB01MPS 9999 OVC014 M08/M10 Q0990 R08/490340 NOSIG RMK QFE742/0989
MVFR -8°C / °C variable 2kt >10km - Overcast 2200ft 990 No Significant change. Runway 08: Dry snow, 51-100% contamination with 3mm, friction coefficient 0.40. ULAA 021530Z VRB01MPS 9999 OVC022 M08/M10 Q0990 R08/490340 NOSIG RMK QFE741/0989
MVFR -9°C / °C variable 2kt >10km - Overcast 2200ft 989 No Significant change. Runway 08: Dry snow, 51-100% contamination with 3mm, friction coefficient 0.40. ULAA 021500Z VRB01MPS 9999 OVC022 M09/M10 Q0989 R08/490340 NOSIG RMK QFE741/0988
MVFR -9°C / °C 360º 2kt >10km - Overcast 2200ft 989 No Significant change. Runway 08: Dry snow, 51-100% contamination with 3mm, friction coefficient 0.40. ULAA 021430Z 36001MPS 9999 OVC022 M09/M10 Q0989 R08/490340 NOSIG RMK QFE741/0988
MVFR -9°C / °C variable 2kt >10km - Overcast 2300ft 989 No Significant change. Runway 08: Dry snow, 51-100% contamination with 3mm, friction coefficient 0.40. ULAA 021400Z VRB01MPS 9999 OVC023 M09/M10 Q0989 R08/490340 NOSIG RMK QFE741/0988
MVFR -9°C / °C variable 2kt >10km Light Showers Snow 3.00mm precipitation Vertical Visibility of 0ft. 988 No Significant change. Runway 08: Dry snow, 51-100% contamination with 5mm, friction coefficient 0.40. ULAA 021330Z VRB01MPS 9999 -SHSN OVC022CB M09/M10 Q0988 R08/490540 NOSIG RMK QFE740/0987
MVFR -9°C / °C variable 2kt 9000m Light Showers Snow 3.00mm precipitation Vertical Visibility of 0ft. 988 No Significant change. Runway 08: Dry snow, 51-100% contamination with 5mm, friction coefficient 0.40. ULAA 021300Z VRB01MPS 9000 -SHSN OVC020CB M09/M10 Q0988 R08/490540 NOSIG RMK QFE740/0987
MVFR -9°C / °C 330º 2kt 8000m Light Showers Snow 3.00mm precipitation Vertical Visibility of 0ft. 988 No Significant change. Runway 08: Dry snow, 51-100% contamination with 5mm, friction coefficient 0.40. ULAA 021230Z 33001MPS 8000 -SHSN OVC018CB M09/M10 Q0988 R08/490540 NOSIG RMK QFE740/0987
MVFR -9°C / °C 330º 2kt 9000m Light Showers Snow 3.00mm precipitation Vertical Visibility of 0ft. 988 No Significant change. Runway 08: Dry snow, 51-100% contamination with 5mm, friction coefficient 0.40. ULAA 021200Z 33001MPS 9000 -SHSN OVC015CB M09/M10 Q0988 R08/490540 NOSIG RMK QFE740/0987
MVFR -9°C / °C variable 2kt >10km - Overcast 1500ft 988 No Significant change. Runway 08: Dry snow, 51-100% contamination with 5mm, friction coefficient 0.40. ULAA 021130Z VRB01MPS 9999 OVC015 M09/M10 Q0988 R08/490540 NOSIG RMK QFE740/0986
MVFR -8°C / °C variable 2kt 9000m - Overcast 1500ft 987 No Significant change. Runway 08: Dry snow, 51-100% contamination with 5mm, friction coefficient 0.40. ULAA 021100Z VRB01MPS 9000 OVC015 M08/M10 Q0987 R08/490540 NOSIG RMK QFE739/0986
MVFR -9°C / °C 340º 2kt >10km - Overcast 1500ft 987 No Significant change. Runway 08: Dry snow, 51-100% contamination with 5mm, friction coefficient 0.40. ULAA 021030Z 34001MPS 9999 OVC015 M09/M11 Q0987 R08/490540 NOSIG RMK QFE739/0986
MVFR -9°C / °C 360º variable 320º to 020º 4kt >10km - Overcast 1500ft 987 No Significant change. Runway 08: Dry snow, 51-100% contamination with 5mm, friction coefficient 0.40. ULAA 021000Z 36002MPS 320V020 9999 OVC015 M09/M11 Q0987 R08/490540 NOSIG RMK QFE739/0986
MVFR -9°C / °C variable 2kt >10km - Overcast 1700ft 986 No Significant change. Runway 08: Dry snow, 51-100% contamination with 5mm, friction coefficient 0.40. ULAA 020930Z VRB01MPS 9999 OVC017 M09/M10 Q0986 R08/490540 NOSIG RMK QFE739/0985
MVFR -9°C / °C variable 2kt >10km - Overcast 1700ft 986 No Significant change. Runway 08: Dry snow, 51-100% contamination with 5mm, friction coefficient 0.40. ULAA 020900Z VRB01MPS 9999 OVC017 M09/M11 Q0986 R08/490540 NOSIG RMK QFE739/0985
MVFR -9°C / °C variable 2kt >10km - Overcast 1900ft 986 No Significant change. Runway 08: Dry snow, 51-100% contamination with 5mm, friction coefficient 0.40. ULAA 020830Z VRB01MPS 9999 OVC019 M09/M11 Q0986 R08/490540 NOSIG RMK QFE738/0985
MVFR -9°C / °C variable 0kt >10km - Overcast 1800ft 986 No Significant change. Runway 08: Dry snow, 51-100% contamination with 5mm, friction coefficient 0.40. ULAA 020800Z 00000MPS 9999 OVC018 M09/M11 Q0986 R08/490540 NOSIG RMK QFE738/0984
MVFR -9°C / °C variable 2kt >10km - Overcast 1400ft 985 No Significant change. Runway 08: Dry snow, 51-100% contamination with 5mm, friction coefficient 0.40. ULAA 020730Z VRB01MPS 9999 OVC014 M09/M10 Q0985 R08/490540 NOSIG RMK QFE738/0984
MVFR -9°C / °C 350º 2kt >10km - Overcast 1400ft 985 No Significant change. Runway 08: Dry snow, 51-100% contamination with 5mm, friction coefficient 0.40. ULAA 020700Z 35001MPS 9999 OVC014 M09/M10 Q0985 R08/490540 NOSIG RMK QFE738/0984
MVFR -9°C / °C variable 2kt >10km - Overcast 1600ft 984 No Significant change. Runway 08: Dry snow, 51-100% contamination with 5mm, friction coefficient 0.40. ULAA 020630Z VRB01MPS 9999 OVC016 M09/M10 Q0984 R08/490540 NOSIG RMK QFE737/0983
MVFR -9°C / °C 10º 2kt >10km Light Snow 1.00mm precipitation Vertical Visibility of 0ft. 984 No Significant change. Runway 08: Dry snow, 51-100% contamination with 5mm, friction coefficient 0.40. ULAA 020600Z 01001MPS 9999 -SN OVC017 M09/M10 Q0984 R08/490540 NOSIG RMK QFE737/0983
MVFR -9°C / °C variable 2kt >10km Light Snow 1.00mm precipitation Vertical Visibility of 0ft. 984 No Significant change. Runway 08: Dry snow, 51-100% contamination with 5mm, friction coefficient 0.40. ULAA 020530Z VRB01MPS 9999 -SN OVC013 M09/M11 Q0984 R08/490540 NOSIG RMK QFE737/0983
MVFR -9°C / °C 360º 2kt >10km Light Snow 1.00mm precipitation Vertical Visibility of 0ft. 983 No Significant change. Runway 08: Dry snow, 51-100% contamination with 5mm, friction coefficient 0.40. ULAA 020500Z 36001MPS 9999 -SN OVC015 M09/M10 Q0983 R08/490540 NOSIG RMK QFE737/0982

MVFR

-8°C / °C

[Meer]
Wind variable 2kt
Zicht >10km
Weer -
Wolken Overcast 1400ft
Luchtdruk 990
Wijzigen No Significant change. Runway 08: Dry snow, 51-100% contamination with 3mm, friction coefficient 0.40.
Ruw ULAA 021630Z VRB01MPS 9999 OVC014 M08/M10 Q0990 R08/490340 NOSIG RMK QFE742/0989

MVFR

-8°C / °C

[Meer]
Wind variable 2kt
Zicht >10km
Weer -
Wolken Overcast 1400ft
Luchtdruk 990
Wijzigen No Significant change. Runway 08: Dry snow, 51-100% contamination with 3mm, friction coefficient 0.40.
Ruw ULAA 021600Z VRB01MPS 9999 OVC014 M08/M10 Q0990 R08/490340 NOSIG RMK QFE742/0989

MVFR

-8°C / °C

[Meer]
Wind variable 2kt
Zicht >10km
Weer -
Wolken Overcast 2200ft
Luchtdruk 990
Wijzigen No Significant change. Runway 08: Dry snow, 51-100% contamination with 3mm, friction coefficient 0.40.
Ruw ULAA 021530Z VRB01MPS 9999 OVC022 M08/M10 Q0990 R08/490340 NOSIG RMK QFE741/0989

MVFR

-9°C / °C

[Meer]
Wind variable 2kt
Zicht >10km
Weer -
Wolken Overcast 2200ft
Luchtdruk 989
Wijzigen No Significant change. Runway 08: Dry snow, 51-100% contamination with 3mm, friction coefficient 0.40.
Ruw ULAA 021500Z VRB01MPS 9999 OVC022 M09/M10 Q0989 R08/490340 NOSIG RMK QFE741/0988

MVFR

-9°C / °C

[Meer]
Wind 360º 2kt
Zicht >10km
Weer -
Wolken Overcast 2200ft
Luchtdruk 989
Wijzigen No Significant change. Runway 08: Dry snow, 51-100% contamination with 3mm, friction coefficient 0.40.
Ruw ULAA 021430Z 36001MPS 9999 OVC022 M09/M10 Q0989 R08/490340 NOSIG RMK QFE741/0988

MVFR

-9°C / °C

[Meer]
Wind variable 2kt
Zicht >10km
Weer -
Wolken Overcast 2300ft
Luchtdruk 989
Wijzigen No Significant change. Runway 08: Dry snow, 51-100% contamination with 3mm, friction coefficient 0.40.
Ruw ULAA 021400Z VRB01MPS 9999 OVC023 M09/M10 Q0989 R08/490340 NOSIG RMK QFE741/0988

MVFR

-9°C / °C

[Meer]
Wind variable 2kt
Zicht >10km
Weer Light Showers Snow 3.00mm precipitation
Wolken Vertical Visibility of 0ft.
Luchtdruk 988
Wijzigen No Significant change. Runway 08: Dry snow, 51-100% contamination with 5mm, friction coefficient 0.40.
Ruw ULAA 021330Z VRB01MPS 9999 -SHSN OVC022CB M09/M10 Q0988 R08/490540 NOSIG RMK QFE740/0987

MVFR

-9°C / °C

[Meer]
Wind variable 2kt
Zicht 9000m
Weer Light Showers Snow 3.00mm precipitation
Wolken Vertical Visibility of 0ft.
Luchtdruk 988
Wijzigen No Significant change. Runway 08: Dry snow, 51-100% contamination with 5mm, friction coefficient 0.40.
Ruw ULAA 021300Z VRB01MPS 9000 -SHSN OVC020CB M09/M10 Q0988 R08/490540 NOSIG RMK QFE740/0987

MVFR

-9°C / °C

[Meer]
Wind 330º 2kt
Zicht 8000m
Weer Light Showers Snow 3.00mm precipitation
Wolken Vertical Visibility of 0ft.
Luchtdruk 988
Wijzigen No Significant change. Runway 08: Dry snow, 51-100% contamination with 5mm, friction coefficient 0.40.
Ruw ULAA 021230Z 33001MPS 8000 -SHSN OVC018CB M09/M10 Q0988 R08/490540 NOSIG RMK QFE740/0987

MVFR

-9°C / °C

[Meer]
Wind 330º 2kt
Zicht 9000m
Weer Light Showers Snow 3.00mm precipitation
Wolken Vertical Visibility of 0ft.
Luchtdruk 988
Wijzigen No Significant change. Runway 08: Dry snow, 51-100% contamination with 5mm, friction coefficient 0.40.
Ruw ULAA 021200Z 33001MPS 9000 -SHSN OVC015CB M09/M10 Q0988 R08/490540 NOSIG RMK QFE740/0987

MVFR

-9°C / °C

[Meer]
Wind variable 2kt
Zicht >10km
Weer -
Wolken Overcast 1500ft
Luchtdruk 988
Wijzigen No Significant change. Runway 08: Dry snow, 51-100% contamination with 5mm, friction coefficient 0.40.
Ruw ULAA 021130Z VRB01MPS 9999 OVC015 M09/M10 Q0988 R08/490540 NOSIG RMK QFE740/0986

MVFR

-8°C / °C

[Meer]
Wind variable 2kt
Zicht 9000m
Weer -
Wolken Overcast 1500ft
Luchtdruk 987
Wijzigen No Significant change. Runway 08: Dry snow, 51-100% contamination with 5mm, friction coefficient 0.40.
Ruw ULAA 021100Z VRB01MPS 9000 OVC015 M08/M10 Q0987 R08/490540 NOSIG RMK QFE739/0986

MVFR

-9°C / °C

[Meer]
Wind 340º 2kt
Zicht >10km
Weer -
Wolken Overcast 1500ft
Luchtdruk 987
Wijzigen No Significant change. Runway 08: Dry snow, 51-100% contamination with 5mm, friction coefficient 0.40.
Ruw ULAA 021030Z 34001MPS 9999 OVC015 M09/M11 Q0987 R08/490540 NOSIG RMK QFE739/0986

MVFR

-9°C / °C

[Meer]
Wind 360º variable 320º to 020º 4kt
Zicht >10km
Weer -
Wolken Overcast 1500ft
Luchtdruk 987
Wijzigen No Significant change. Runway 08: Dry snow, 51-100% contamination with 5mm, friction coefficient 0.40.
Ruw ULAA 021000Z 36002MPS 320V020 9999 OVC015 M09/M11 Q0987 R08/490540 NOSIG RMK QFE739/0986

MVFR

-9°C / °C

[Meer]
Wind variable 2kt
Zicht >10km
Weer -
Wolken Overcast 1700ft
Luchtdruk 986
Wijzigen No Significant change. Runway 08: Dry snow, 51-100% contamination with 5mm, friction coefficient 0.40.
Ruw ULAA 020930Z VRB01MPS 9999 OVC017 M09/M10 Q0986 R08/490540 NOSIG RMK QFE739/0985

MVFR

-9°C / °C

[Meer]
Wind variable 2kt
Zicht >10km
Weer -
Wolken Overcast 1700ft
Luchtdruk 986
Wijzigen No Significant change. Runway 08: Dry snow, 51-100% contamination with 5mm, friction coefficient 0.40.
Ruw ULAA 020900Z VRB01MPS 9999 OVC017 M09/M11 Q0986 R08/490540 NOSIG RMK QFE739/0985

MVFR

-9°C / °C

[Meer]
Wind variable 2kt
Zicht >10km
Weer -
Wolken Overcast 1900ft
Luchtdruk 986
Wijzigen No Significant change. Runway 08: Dry snow, 51-100% contamination with 5mm, friction coefficient 0.40.
Ruw ULAA 020830Z VRB01MPS 9999 OVC019 M09/M11 Q0986 R08/490540 NOSIG RMK QFE738/0985

MVFR

-9°C / °C

[Meer]
Wind variable 0kt
Zicht >10km
Weer -
Wolken Overcast 1800ft
Luchtdruk 986
Wijzigen No Significant change. Runway 08: Dry snow, 51-100% contamination with 5mm, friction coefficient 0.40.
Ruw ULAA 020800Z 00000MPS 9999 OVC018 M09/M11 Q0986 R08/490540 NOSIG RMK QFE738/0984

MVFR

-9°C / °C

[Meer]
Wind variable 2kt
Zicht >10km
Weer -
Wolken Overcast 1400ft
Luchtdruk 985
Wijzigen No Significant change. Runway 08: Dry snow, 51-100% contamination with 5mm, friction coefficient 0.40.
Ruw ULAA 020730Z VRB01MPS 9999 OVC014 M09/M10 Q0985 R08/490540 NOSIG RMK QFE738/0984

MVFR

-9°C / °C

[Meer]
Wind 350º 2kt
Zicht >10km
Weer -
Wolken Overcast 1400ft
Luchtdruk 985
Wijzigen No Significant change. Runway 08: Dry snow, 51-100% contamination with 5mm, friction coefficient 0.40.
Ruw ULAA 020700Z 35001MPS 9999 OVC014 M09/M10 Q0985 R08/490540 NOSIG RMK QFE738/0984

MVFR

-9°C / °C

[Meer]
Wind variable 2kt
Zicht >10km
Weer -
Wolken Overcast 1600ft
Luchtdruk 984
Wijzigen No Significant change. Runway 08: Dry snow, 51-100% contamination with 5mm, friction coefficient 0.40.
Ruw ULAA 020630Z VRB01MPS 9999 OVC016 M09/M10 Q0984 R08/490540 NOSIG RMK QFE737/0983

MVFR

-9°C / °C

[Meer]
Wind 10º 2kt
Zicht >10km
Weer Light Snow 1.00mm precipitation
Wolken Vertical Visibility of 0ft.
Luchtdruk 984
Wijzigen No Significant change. Runway 08: Dry snow, 51-100% contamination with 5mm, friction coefficient 0.40.
Ruw ULAA 020600Z 01001MPS 9999 -SN OVC017 M09/M10 Q0984 R08/490540 NOSIG RMK QFE737/0983

MVFR

-9°C / °C

[Meer]
Wind variable 2kt
Zicht >10km
Weer Light Snow 1.00mm precipitation
Wolken Vertical Visibility of 0ft.
Luchtdruk 984
Wijzigen No Significant change. Runway 08: Dry snow, 51-100% contamination with 5mm, friction coefficient 0.40.
Ruw ULAA 020530Z VRB01MPS 9999 -SN OVC013 M09/M11 Q0984 R08/490540 NOSIG RMK QFE737/0983

MVFR

-9°C / °C

[Meer]
Wind 360º 2kt
Zicht >10km
Weer Light Snow 1.00mm precipitation
Wolken Vertical Visibility of 0ft.
Luchtdruk 983
Wijzigen No Significant change. Runway 08: Dry snow, 51-100% contamination with 5mm, friction coefficient 0.40.
Ruw ULAA 020500Z 36001MPS 9999 -SN OVC015 M09/M10 Q0983 R08/490540 NOSIG RMK QFE737/0982

TAF voor 64.6°N 40.72°O (ULAA)

From till


From till Wind 30º 6kt. Visibility 8000m. Broken Clouds 1600ft.
Temporarly from till Wind 350º 6kt. Gust 16kt. Visibility 997.791m. Showers Snow Mist . Few Clouds 500ft. Broken Clouds 1100ft.
Temporarly from till Wind 350º 6kt. Gust 19kt. Visibility 6000m. Light Showers Snow . Few Clouds 600ft. Broken Clouds 1600ft.
Temporarly from till Wind 70º 6kt. Gust 19kt.

Ruw: TAF ULAA 021400Z 0215/0315 03003MPS 8000 BKN016 TEMPO 0215/0219 35003G08MPS 1000 SHSN BR FEW005 BKN011CB TEMPO 0219/0303 35003G10MPS 6000 -SHSN FEW006 BKN016CB TEMPO 0303/0315 07003G10MPS

Radar en neerslag nowcast voor 64.6°N 40.72°O

Motregen
Licht
Matig
Zwaar
Zeer zwaar
Hail

De locatiemarkering wordt geplaatst op 64.6°N 40.72°O. Deze animation toont de neerslag radar van het afgelopen uur, maar ook de 1h verwachting. Motregen of lichte sneeuwval kan onzichtbaar zijn voor de radar. De neerslagintensiteit wordt met kleuren gecodeerd, van lichtblauw tot oranje.

Huidige satelliet- en regenbeelden voor 64.6°N 40.72°O

De locatiemarkering is geplaatst op 64.6°N 40.72°O. [Meer]

Het realtime satellietbeeld combineert zichtbaar licht overdag met infraroodstraling 's nachts. 's Nachts is het beeld niet donker, omdat infraroodstraling temperatuurverschillen kan waarnemen. Helaas zijn lage wolken en mist moeilijk te onderscheiden van grondtemperaturen en kunnen dus 's nachts bijna onzichtbaar zijn. Meteosat-satellietbeelden voor Europa worden elke 5 minuten in real time bijgewerkt. De beelden van GOES-16/GOES-17 (Noord- en Zuid-Amerika) en Himawari (Azië) worden om de 10 minuten bijgewerkt.

Copyright 2021 EUMETSAT / meteoblue. / Copyright 2021 meteoblue